TimePDT,TemperatureF,Dew PointF,Humidity,Sea Level PressureIn,VisibilityMPH,Wind Direction,Wind SpeedMPH,Gust SpeedMPH,PrecipitationIn,Events,Conditions,WindDirDegrees,DateUTC
12:53 AM,35.1,21.0,57,29.98,10.0,SW,3.5,-,N/A,,Clear,220,2013-03-25 07:53:00
1:53 AM,32.0,19.0,59,29.99,10.0,Calm,Calm,-,N/A,,Clear,0,2013-03-25 08:53:00
2:53 AM,30.0,18.0,61,29.99,10.0,Calm,Calm,-,N/A,,Clear,0,2013-03-25 09:53:00
3:53 AM,28.9,18.0,64,29.99,10.0,Calm,Calm,-,N/A,,Clear,0,2013-03-25 10:53:00
4:53 AM,28.0,18.0,66,29.99,10.0,Calm,Calm,-,N/A,,Clear,0,2013-03-25 11:53:00
5:53 AM,27.0,17.1,66,30.00,10.0,Calm,Calm,-,N/A,,Clear,0,2013-03-25 12:53:00
6:53 AM,26.1,16.0,66,30.02,10.0,Calm,Calm,-,N/A,,Clear,0,2013-03-25 13:53:00
7:53 AM,26.1,17.1,69,30.04,10.0,Calm,Calm,-,N/A,,Clear,0,2013-03-25 14:53:00
8:53 AM,33.1,17.1,52,30.02,10.0,Calm,Calm,-,N/A,,Clear,0,2013-03-25 15:53:00
9:53 AM,43.0,19.0,38,30.00,10.0,NE,4.6,-,N/A,,Clear,40,2013-03-25 16:53:00
10:53 AM,50.0,23.0,35,29.99,10.0,NE,3.5,-,N/A,,Clear,50,2013-03-25 17:53:00
11:53 AM,55.9,-0.0,10,29.96,10.0,SSW,10.4,23.0,N/A,,Clear,210,2013-03-25 18:53:00
12:53 PM,57.9,3.0,11,29.94,10.0,Variable,6.9,20.7,N/A,,Clear,0,2013-03-25 19:53:00
1:53 PM,60.1,10.0,14,29.93,10.0,South,12.7,23.0,N/A,,Clear,190,2013-03-25 20:53:00
2:53 PM,57.0,12.9,18,29.93,10.0,Variable,6.9,23.0,N/A,,Clear,0,2013-03-25 21:53:00
3:53 PM,55.9,12.9,18,29.92,10.0,Variable,6.9,17.3,N/A,,Clear,0,2013-03-25 22:53:00
4:53 PM,54.0,15.1,22,29.93,10.0,South,8.1,-,N/A,,Clear,190,2013-03-25 23:53:00
5:53 PM,52.0,18.0,26,29.93,10.0,SSW,9.2,20.7,N/A,,Clear,210,2013-03-26 00:53:00
6:53 PM,48.9,21.0,33,29.95,10.0,SSW,8.1,-,N/A,,Clear,210,2013-03-26 01:53:00
7:53 PM,46.9,27.0,46,29.96,10.0,South,6.9,-,N/A,,Clear,190,2013-03-26 02:53:00
8:53 PM,44.1,28.9,55,29.94,10.0,SSW,3.5,-,N/A,,Partly Cloudy,200,2013-03-26 03:53:00
9:53 PM,44.1,19.9,38,29.91,10.0,SE,5.8,-,N/A,,Scattered Clouds,140,2013-03-26 04:53:00
10:53 PM,42.1,12.9,31,29.91,10.0,Calm,Calm,-,N/A,,Clear,0,2013-03-26 05:53:00
11:53 PM,43.0,17.1,35,29.88,10.0,South,4.6,-,N/A,,Partly Cloudy,170,2013-03-26 06:53:00